Regional Weather Roundup
Issued by NWS

Home | Current Version | Previous Version | Text Only | Print | Product List | Glossary Off
Versions: 1 2 3 4 5 6 7 8 9 10 11 12 13 14 15 16 17 18 19 20 21 22 23 24 25 26 27 28 29 30 31 32 33 34 35 36 37 38 39 40 41 42 43 44 45 46 47 48 49 50

000
ASUS45 KSLC 211410
RWRUT

UTAH REGIONAL WEATHER ROUNDUP
NATIONAL WEATHER SERVICE SALT LAKE CITY UT
700 AM MST SUN DEC 21 2014

UTZ001>011-023>025-211500-

NORTHERN UTAH

CITY           SKY/WX    TMP DP  RH WIND       PRES   REMARKS
BRIGHAM CITY   CLOUDY    39  36  88 S12       29.97R WCI  32
HILL AFB       MIX PCPN  36  36 100 S15       29.97R FOG     WCI  26
LOGAN          LGT RAIN  40  35  83 S12       29.90R WCI  33
OGDEN          LGT RAIN  37  36  96 S10       29.97R FOG     WCI  30
PROVO AIRPORT  CLOUDY    37  34  87 S3        30.03F
SALT LAKE CITY LGT RAIN  39  35  86 S16       29.98R WCI  30
VERNAL         CLOUDY    29  27  92 NW3       29.96F FOG
WENDOVER       CLOUDY    36  30  80 CALM      29.95S
HEBER CITY     MIX PCPN  34  32  93 N5        29.97S WCI  30
WEST JORDAN    CLOUDY    36  36 100 S20       30.00R WCI  25

$$

UTZ012>022-026-027-211500-

SOUTHERN/CENTRAL UTAH

CITY           SKY/WX    TMP DP  RH WIND       PRES   REMARKS
BLANDING       CLOUDY    28  27  98 NE3       30.12R
BRYCE CANYON   MOCLDY    30  23  75 NW12      30.08F WCI  20
CEDAR CITY     PTCLDY    28  24  85 SE3       30.09R
DELTA          CLOUDY    36  31  83 S9        30.04S WCI  29
MILFORD        CLOUDY    37  29  72 SW17      30.07R WCI  27
MOAB/CYNLANDS  CLOUDY    34  32  92 W3        30.05R
PRICE          CLOUDY    30  26  85 CALM      30.03R
ST GEORGE      CLOUDY    36  28  75 N6        30.15F WCI  31
KANAB          PTCLDY    28  28 100 CALM      30.15S

$$

REGIONAL REPORTS     COLORADO/ARIZONA

CITY           SKY/WX    TMP DP  RH WIND       PRES   REMARKS
CRAIG, CO      LGT SNOW  28  26  92 E3        29.91F FOG
GRAND JUNCTION CLOUDY    32  31  96 W5        30.05R WCI  27
RIFLE          LGT SNOW  31  29  92 E3        30.03S VSB 1
MONTROSE       CLOUDY    29  27  92 S3        30.07R
CORTEZ         CLEAR     26  24  92 E8        30.04S WCI  18
PAGE, AZ       MOCLDY    34  28  79 SW5       30.09R WCI  30
GRAND CANYON   PTCLDY    22  20  92 CALM      30.15R
KINGMAN        MOCLDY    34  31  88 SE7       30.13S WCI  28
FLAGSTAFF      CLOUDY    31  21  66 SW8       30.11R WCI  23

$$

REGIONAL REPORTS    NEVADA/IDAHO/WYOMING

CITY           SKY/WX    TMP DP  RH WIND       PRES   REMARKS
LAS VEGAS, NV  CLOUDY    44  36  73 S8        30.10R
ELY            CLOUDY    36  35  96 SW6       30.12S WCI  31
ELKO           CLOUDY    43  38  82 VRB3      30.05R
POCATELLO, ID  CLOUDY    43  40  89 SW25G35   29.81F
BURLEY         LGT RAIN  44  40  85 W17       29.82F
EVANSTON, WY   LGT SNOW  31  30  96 SW21G29   29.88S FOG     WCI  18
ROCK SPRINGS   LGT SNOW  30  27  88 SW21      29.80F FOG     WCI  17
KEMMERER       LGT SNOW  32  32 100 SW21G29   29.83R WCI  20

$$



USA.gov is the U.S. government's official web portal to all federal, state and local government web resources and services.